Volver al catálogo

FENGYUN 1C DEB

ActivoPO
NORAD 33682·DEBRIS·🇨🇳 China

Lanzado May 10, 1999 desde Taiyuan Satellite Launch Center

Loading…

Próximos Pases (próximas 24 horas)

TLE

ActualizadoSource: Space-Track

Época: Sep 14, 2026, 03:29 UTC

1 33682U 99025DFT 26257.14538548  .00002040  00000-0  83527-3 0  9991
2 33682  99.4040 329.6786 0026496  19.5707 340.6483 14.28239425956274

Sigue FENGYUN 1C DEB en tiempo real con AllMySat

Download on the App Store